Skip Page Navigation
NASA JPL Caltech
NASA Logo - Jet Propulsion Laboratory + View the NASA Portal
+ Center for Near-Earth Object Studies
JPL Home Earth Solar System Stars & Galaxies Technology
JPL Solar System Dynamics
BODIES ORBITS EPHEMERIDES TOOLS PHYSICAL DATA DISCOVERY FAQ SITE MAP
JPL Small-Body Database Browser
Search: [ help ]  
(2015 KJ19)
Classification: Apollo [NEO]          SPK-ID: 3719475
Ephemeris | Orbit Diagram | Orbital Elements | Mission Design | Physical Parameters | Close-Approach Data ]

[ hide orbit diagram ]

For accurate long-term ephemerides, please instead use our Horizons system.This orbit viewer was implemented using two-body methods, and hence should not be used for determining accurate long-term trajectories (over several years or decades) or planetary encounter circumstances.


Orbital Elements at Epoch 2459200.5 (2020-Dec-17.0) TDB
Reference: JPL 17 (heliocentric ecliptic J2000)
 Element Value Uncertainty (1-sigma)   Units 
e .745685809596087 7.8617e-07  
a 2.078714485462665 9.8126e-09 au
q .5286465914513243 1.6357e-06 au
i 2.540549560146651 3.5921e-05 deg
node 106.248038915319 0.00081244 deg
peri 29.80742430500623 0.00088486 deg
M 326.6677438846298 1.3908e-05 deg
tp 2459301.856802148439
(2021-Mar-28.35680215)
4.2142e-05 TDB
period 1094.688839757614
3.00
7.7513e-06
2.122e-08
d
yr
n .3288605738227048 2.3286e-09 deg/d
Q 3.628782379474006 1.713e-08 au
  Orbit Determination Parameters
   # obs. used (total)      141  
   data-arc span      1097 days (3.00 yr)  
   first obs. used      2015-05-20  
   last obs. used      2018-05-21  
   planetary ephem.      DE441  
   SB-pert. ephem.      SB441-N16  
   condition code      0  
   norm. resid. RMS      .4798  
   source      ORB  
   producer      Otto Matic  
   solution date      2021-Apr-15 13:43:07  

Additional Information
 Earth MOID = .0359627 au 
 Jupiter MOID = 1.42904 au 
 T_jup = 3.345 
[ hide covariance matrix ]
Orbital Elements at Epoch 2457389.5 (2016-Jan-02.0) TDB
Reference: JPL 17 (heliocentric ecliptic J2000)
 Element Value Uncertainty (1-sigma)   Units 
e .745052872738569 7.8039e-07  
q .5299157656030542 1.6213e-06 au
tp 2457112.146079182437
(2015-Mar-30.64607918)
3.4958e-05 TDB
node 106.3817948614137 0.00081481 deg
peri 29.67268308652584 0.00088742 deg
i 2.536356174720577 3.5933e-05 deg
  Orbit Determination Parameters
   # obs. used (total)      141  
   data-arc span      1097 days (3.00 yr)  
   first obs. used      2015-05-20  
   last obs. used      2018-05-21  
   planetary ephem.      DE441  
   SB-pert. ephem.      SB441-N16  
   condition code      0  
   norm. resid. RMS      .4798  
   source      ORB  
   producer      Otto Matic  
   solution date      2021-Apr-15 13:43:07  

Additional Information
 Jupiter MOID = 1.42904 au 
 T_jup = 3.345 
Orbit Covariance (6×6)
  e q tp node peri i
e 6.090057652919145E-13 -1.265251847005748E-12 2.559029149097159E-11 2.890629081419129E-10 -4.054857683287903E-10 -1.539626693574518E-11
q -1.265251847005748E-12 2.628650281881454E-12 -5.316073092689155E-11 -6.004040523143569E-10 8.422901839910843E-10 3.197796201702563E-11
tp 2.559029149097159E-11 -5.316073092689155E-11 1.222041723008371E-9 1.491381148039291E-8 -1.95904644535406E-8 -8.245732768544711E-10
node 2.890629081419129E-10 -6.004040523143569E-10 1.491381148039291E-8 6.639227813983262E-7 -7.144282572654055E-7 -2.861404799117341E-8
peri -4.054857683287903E-10 8.422901839910843E-10 -1.95904644535406E-8 -7.144282572654055E-7 7.875165780063098E-7 3.126631892764935E-8
i -1.539626693574518E-11 3.197796201702563E-11 -8.245732768544711E-10 -2.861404799117341E-8 3.126631892764935E-8 1.291208566556999E-9

Ephemeris | Orbit Diagram | Orbital Elements | Mission Design | Physical Parameters | Close-Approach Data ]

Physical Parameter Table
Parameter Symbol Value Units Sigma Reference Notes
absolute magnitude H 22.4   n/a MPO448402  

[ hide close-approach data ]
Close-Approach Data   ...sorted by Date/Time (TDB)
Date/Time (TDB) Time Uncertainty
(days_HH:MM)
Body Nominal Distance (au) Minimum Distance (au) Maximum Distance (au) V-relative (km/s) V-infinity (km/s) JD (TDB) Time Uncertainty (minutes) Semi-major axis (km) Semi-minor axis (km) range-LOV angle (deg) N-sigma BP Orbit Ref. Reference Modified
1902-Apr-06 21:31 00:22 Earth 0.364594738428424 0.364539046920022 0.364650429953385 16.1615552982546 16.1611031041635 2415846.396412010 21.6301397025371 2779.81445305277 41.4303670979273 -2.60049929951722 47120.6961416479 T 17 CATAB v2.0g-lin.ifort 2021-Apr-15 13:43:08 2021-Apr-15 13:43
1905-Jan-22 00:10 00:03 Venus 0.0141921822318895 0.0141810320239452 0.0142033565696435 22.7499688559597 22.7432421387394 2416867.506906386 3.01094579025517 1077.94771434412 11.1785145323474 -58.9147409707283 164618.436917506 T 17 CATAB v2.0g-lin.ifort 2021-Apr-15 13:43:08 2021-Apr-15 13:43
1905-Feb-24 23:33 00:04 Earth 0.472185530093252 0.472178598854598 0.472192461421876 24.1351345432341 24.1349007391667 2416901.480922097 3.92900371851592 476.092563924974 41.7108702624922 43.6610392236671 929282.62174432 T 17 CATAB v2.0g-lin.ifort 2021-Apr-15 13:43:08 2021-Apr-15 13:43
1908-Jan-28 06:16 00:02 Earth 0.482934950965902 0.482931936291053 0.482937965669466 25.4340320085455 25.4338150831699 2417968.761041888 2.05649860388418 242.588717178079 32.9150594972739 52.3897259709428 1474723.40892715 T 17 CATAB v2.0g-lin.ifort 2021-Apr-15 13:43:08 2021-Apr-15 13:43
1910-Dec-28 10:32 < 00:01 Earth 0.424266667567579 0.424261907297183 0.424271427839615 20.5937211600258 20.5934162007613 2419033.938559966 0.270312262688197 241.054411084826 30.5859992826653 10.1156879012113 356385.700174025 T 17 CATAB v2.0g-lin.ifort 2021-Apr-15 13:43:08 2021-Apr-15 13:43
1913-Nov-12 19:40 < 00:01 Earth 0.215214417196428 0.215196375435469 0.215232459003887 17.0943449523775 17.0936206869874 2420084.319174149 0.930838265897601 913.432598026869 46.3025092462901 -9.96293210428052 137632.472622607 T 17 CATAB v2.0g-lin.ifort 2021-Apr-15 13:43:08 2021-Apr-15 13:43
1916-Oct-26 20:28 < 00:01 Earth 0.0812968054998685 0.0812725241812795 0.0813210892046682 25.3648897888966 25.3635976269154 2421163.353093227 0.786130798815554 1396.26013345358 53.0597518969786 29.8870899859315 113356.891618372 T 17 CATAB v2.0g-lin.ifort 2021-Apr-15 13:43:08 2021-Apr-15 13:43
1919-Oct-14 21:21 00:01 Earth 0.327017136998668 0.326983655262206 0.32705061877491 33.0969646363656 33.0967184549333 2422246.389637763 1.11524822547423 1679.26968566692 52.2013808778503 6.15683169380998 101861.380970841 T 17 CATAB v2.0g-lin.ifort 2021-Apr-15 13:43:08 2021-Apr-15 13:43
1919-Nov-01 22:40 00:03 Venus 0.0598322224644347 0.0597997846989901 0.059864660933846 20.1382770350495 20.1364747190663 2422264.444301278 2.92845871381051 1649.61901860472 10.5248694471334 -11.3085490881875 172010.211207941 T 17 CATAB v2.0g-lin.ifort 2021-Apr-15 13:43:08 2021-Apr-15 13:43
1970-Jun-29 09:37 00:05 Venus 0.0794903235734544 0.0794585010241882 0.0795221461265477 18.3995020417694 18.3980172480056 2440766.900582066 4.58009105734012 1587.10061892187 51.5633678452937 -0.910403391342023 8590.22420737217 T 17 CATAB v2.0g-lin.ifort 2021-Apr-15 13:43:08 2021-Apr-15 13:43
1973-May-03 22:58 00:03 Venus 0.0808594814535597 0.0808401893443662 0.0808787737511476 26.0288738210795 26.0278420312956 2441806.457219005 2.55268098673013 981.519289799038 14.1560420798181 11.4440493662028 167150.223974047 T 17 CATAB v2.0g-lin.ifort 2021-Apr-15 13:43:08 2021-Apr-15 13:43
1991-Jun-08 01:30 00:01 Earth 0.489100326373762 0.489085481163577 0.489115171589035 37.240895821982 37.240749538551 2448415.562471554 1.06344609263756 744.425423292464 34.6477025889153 -6.06394710692446 238383.824281931 T 17 CATAB v2.0g-lin.ifort 2021-Apr-15 13:43:08 2021-Apr-15 13:43
1994-Jun-04 09:09 < 00:01 Earth 0.42177927288353 0.421766450064285 0.42179209570733 35.1555876390522 35.1554079449301 2449507.881420023 0.912623628732624 643.157576630756 32.5421758699301 -6.1872896755784 226042.563240066 T 17 CATAB v2.0g-lin.ifort 2021-Apr-15 13:43:08 2021-Apr-15 13:43
1997-May-30 22:44 < 00:01 Earth 0.335507176673132 0.335496452135393 0.335517901215486 32.5715858806652 32.5713420584552 2450599.447093521 0.751095911128569 538.387408264863 29.6185057827737 -6.63906285835105 212979.743131772 T 17 CATAB v2.0g-lin.ifort 2021-Apr-15 13:43:08 2021-Apr-15 13:43
2000-May-27 05:07 < 00:01 Earth 0.273829829166484 0.273820586945954 0.273839071392103 30.6104125302362 30.6100946491607 2451691.713243102 0.631023248522103 464.633680755999 27.9601471670109 -7.30994906208191 202956.016050988 T 17 CATAB v2.0g-lin.ifort 2021-Apr-15 13:43:08 2021-Apr-15 13:43
2003-May-25 10:15 < 00:01 Earth 0.220705442564846 0.220698048264126 0.220712836870899 29.0448542581337 29.0444386029319 2452784.926933393 0.498560629966234 372.683787692853 25.9959721698588 -8.38113730472691 202745.385618566 T 17 CATAB v2.0g-lin.ifort 2021-Apr-15 13:43:08 2021-Apr-15 13:43
2006-May-22 15:27 < 00:01 Earth 0.172604604701521 0.172599089810853 0.172610119597459 27.5706372313049 27.5700773221285 2453878.144024188 0.361935636263439 279.11565251669 24.3432015894638 -9.88335437650325 202663.259532388 T 17 CATAB v2.0g-lin.ifort 2021-Apr-15 13:43:08 2021-Apr-15 13:43
2009-May-19 08:03 < 00:01 Earth 0.111515213949123 0.111511665377375 0.111518762527843 25.7488812238709 25.747953267203 2454970.835550723 0.207996105713739 182.411053712697 21.5344721931806 -14.1516299784069 209672.784932925 T 17 CATAB v2.0g-lin.ifort 2021-Apr-15 13:43:08 2021-Apr-15 13:43
2012-May-16 18:19 < 00:01 Earth 0.0770425629995165 0.0770403081640709 0.0770448178423675 24.5596748546701 24.5582666315414 2456064.263319870 0.0990962017276661 118.769927832953 19.5649415835349 -19.0589455937809 214645.120058369 T 17 CATAB v2.0g-lin.ifort 2021-Apr-15 13:43:08 2021-Apr-15 13:43
